Location: Costa Valle Imagna
(45.8000°N, 9.5000°E)
Time: 17:48:15
(UTC+00:00)

Cosmos 2297 - Pass Details

Date: 17 February 2020
Orbit: 837 x 857 km, 71.0° (Epoch: 31 March)

Event Time Altitude Azimuth Distance (km) Brightness Sun altitude
Exits shadow 04:37:04 33° 256° (WSW) 1,368 4.2 -18.9°
Maximum altitude 04:37:06 33° 255° (WSW) 1,368 4.2 -18.9°
Drops below altitude 10° 04:42:05 10° 192° (SSW) 2,450 6.0 -18.1°
Sets 04:44:43 0° 184° (S) 3,383 6.8 -17.6°
